Home   Weather   Islamabad   Past weeks

Flag for Pakistan Past Weather in Islamabad, Pakistan — Yesterday and Last 2 Weeks

Now
82 °F

Passing clouds.


Feels Like: 88 °F
Forecast: 78 / 94 °F
Wind: 5 mph from Northeast

Location: Islamabad Airport

Current Time: Jul 24, 2017 at 3:49:57 am

Latest Report: Jul 24, 2017 at 3:00 am


Visibility: 4 mi

Pressure: 29.56 "Hg (27.76 "Hg at 554m altitude)

Humidity: 74%

Dew Point: 73 °F

Location of IslamabadLocation

Past Weather in Islamabad — Graph

°F

Islamabad Temperature Yesterday

Maximum temperature yesterday: 95 °F (at 1:25 pm)
Minimum temperature yesterday: 79 °F (at 2:00 am)
Average temperature yesterday: 86 °F

High & Low Weather Summary for the Past Weeks

 TemperatureHumidityPressure
High104 °F (Jul 9, 4:00 pm)100% (Jul 11, 8:00 am)29.74 "Hg (Jul 11, 8:00 am)
Low70 °F (Jul 13, 6:30 am)35% (Jul 9, 4:00 pm)29.45 "Hg (Jul 22, 7:00 pm)
Average87 °F68%29.61 "Hg
* Reported Jul 9 2:00 am — Jul 24 2:00 am, Islamabad. Weather by CustomWeather, © 2017

Note: Actual official high and low records may vary slightly from our data, if they occured in-between our weather recording intervals... More about our weather records

Advertising

Islamabad Weather History for the Previous 24 Hours

Scroll right to see more
 ConditionsComfort  
Time TempWeatherWind HumidityBarometerVisibility
2:00 am
Mon, Jul 24
82 °FPassing clouds.5 mph74%29.59 "Hg4 mi
12:00 am84 °FPassing clouds.5 mph70%29.59 "Hg4 mi
9:30 pm
Sun, Jul 23
88 °FPassing clouds.5 mph62%29.56 "Hg4 mi
9:00 pm88 °FPassing clouds.5 mph62%29.56 "Hg4 mi
8:30 pm88 °FPassing clouds.7 mph62%29.53 "Hg4 mi
8:00 pm88 °FPassing clouds.7 mph62%29.53 "Hg4 mi
7:30 pm90 °FPassing clouds.12 mph59%29.53 "Hg4 mi
7:00 pm90 °FPassing clouds.12 mph59%29.53 "Hg4 mi
6:30 pm91 °FScattered clouds.7 mph56%29.53 "Hg5 mi
6:00 pm91 °FScattered clouds.7 mph56%29.53 "Hg5 mi
5:00 pm93 °FScattered clouds.12 mph56%29.53 "Hg5 mi
4:30 pm95 °FScattered clouds.5 mph53%29.53 "Hg5 mi
4:00 pm95 °FScattered clouds.5 mph53%29.53 "Hg5 mi
3:30 pm91 °FPassing clouds.7 mph59%29.56 "Hg5 mi
3:00 pm91 °FPassing clouds.7 mph59%29.56 "Hg5 mi
2:00 pm91 °FPassing clouds.7 mph59%29.59 "Hg5 mi
1:25 pm95 °FPartly sunny.5 mph56%29.50 "Hg4 mi
1:00 pm90 °FPassing clouds.7 mph59%29.62 "Hg5 mi
12:30 pm88 °FPassing clouds.5 mph62%29.62 "Hg5 mi
11:30 am86 °FScattered clouds.7 mph70%29.65 "Hg4 mi
10:30 am84 °FPartly sunny.9 mph70%29.68 "Hg4 mi
9:30 am81 °FBroken clouds.12 mph74%29.65 "Hg4 mi
9:00 am81 °FBroken clouds.12 mph74%29.65 "Hg4 mi
8:30 am79 °FThunderstorms. Broken clouds.12 mph84%29.68 "Hg2 mi
8:00 am79 °FThunderstorms. Broken clouds.12 mph84%29.68 "Hg2 mi
7:30 am79 °FThunderstorms. Broken clouds.12 mph79%29.65 "Hg2 mi
6:30 am79 °FThunderstorms. Broken clouds.12 mph79%29.65 "Hg2 mi
6:00 am79 °FBroken clouds.12 mph79%29.65 "Hg2 mi
4:00 am79 °FPassing clouds.7 mph79%29.62 "Hg4 mi
3:30 am79 °FPassing clouds.7 mph79%29.62 "Hg4 mi
3:00 am79 °FPassing clouds.7 mph79%29.62 "Hg4 mi
Weather by CustomWeather, © 2017

See weather overviewHow to use our weather pages